Location: Asheville, NC
(35.6000°N, 82.5500°W)
Time: 16:42:22
(UTC-05:00)

Iridium 28 - Pass Details

Date: 07 January 2018
Orbit: 772 x 774 km, 86.4° (Epoch: 18 January)

Event Time Altitude Azimuth Distance (km) Brightness Sun altitude
Rises 06:56:47 0° 186° (S) 3,231 8.9 -8.9°
Reaches altitude 10° 06:59:07 10° 188° (S) 2,307 8.2 -8.5°
Maximum altitude 07:04:16 72° 272° (W) 810 5.5 -7.5°
Drops below altitude 10° 07:09:28 10° 358° (N) 2,321 7.8 -6.5°
Sets 07:11:49 0° 0° (N) 3,251 8.5 -6.1°
